Home   Weather   Richmond Hill   Past weeks

Flag for Canada Past Weather in Richmond Hill, Ontario, Canada — Yesterday and Last 2 Weeks

45 °F

Passing clouds.

Feels Like: 37 °F
Forecast: N/A
Wind: 16 mph from Northwest

Location: Toronto Buttonville

Current Time: Oct 22, 2016 at 7:50:37 PM

Latest Report: Oct 22, 2016 at 7:00 PM

Visibility: 15 mi

Pressure: 29.80 "Hg

Humidity: 57%

Dew Point: 30 °F

Location of Richmond HillLocation

Past Weather in Richmond Hill — Graph


Richmond Hill Temperature Yesterday

Maximum temperature yesterday: 52 °F (at 12:00 AM)
Minimum temperature yesterday: 43 °F (at 9:00 PM)
Average temperature yesterday: 47 °F

High & Low Weather Summary for the Past Weeks

High75 °F (Oct 18, 12:00 PM)100% (Oct 8, 2:00 AM)30.50 "Hg (Oct 8, 2:00 AM)
Low32 °F (Oct 10, 7:00 AM)36% (Oct 10, 5:00 PM)29.54 "Hg (Oct 18, 2:00 PM)
Average54 °F77%30.07 "Hg
* Reported Oct 7 6:00 PM — Oct 22 6:00 PM, Richmond Hill, Weather by CustomWeather, © 2016

Note: Actual official high and low records may vary slightly from our data, if they occured in-between our weather recording intervals... More about our weather records


Richmond Hill Weather History for the Previous 24 Hours

Scroll right to see more
Time TempWeatherWind HumidityBarometerVisibility
6:00 PM
Sat, Oct 22
45 °FPartly sunny.20 mph57%29.79 "Hg15 mi
5:00 PM45 °FPartly sunny.26 mph57%29.78 "Hg15 mi
4:00 PM45 °FScattered clouds.26 mph57%29.77 "Hg15 mi
3:00 PM46 °FPartly sunny.18 mph57%29.76 "Hg15 mi
2:00 PM45 °FPartly sunny.26 mph61%29.77 "Hg15 mi
1:00 PM45 °FPartly sunny.17 mph61%29.78 "Hg15 mi
12:00 PM43 °FPartly sunny.17 mph71%29.79 "Hg15 mi
11:00 AM43 °FPartly sunny.21 mph66%29.78 "Hg15 mi
10:00 AM39 °FPartly sunny.20 mph70%29.78 "Hg15 mi
9:00 AM39 °FPartly sunny.23 mph70%29.80 "Hg15 mi
8:00 AM37 °FPartly sunny.15 mph75%29.80 "Hg15 mi
7:00 AM37 °FPassing clouds.18 mph75%29.80 "Hg15 mi
6:00 AM37 °FPassing clouds.16 mph75%29.82 "Hg15 mi
5:00 AM39 °FPassing clouds.17 mph70%29.83 "Hg15 mi
4:00 AM39 °FPassing clouds.15 mph70%29.83 "Hg15 mi
3:00 AM39 °FPassing clouds.17 mph70%29.84 "Hg15 mi
2:00 AM39 °FPassing clouds.18 mph70%29.86 "Hg15 mi
1:00 AM41 °FPassing clouds.15 mph70%29.86 "Hg15 mi
12:00 AM41 °FPartly cloudy.15 mph76%29.87 "Hg15 mi
11:00 PM
Fri, Oct 21
43 °FLight rain. Passing clouds.14 mph76%29.89 "Hg14 mi
10:00 PM43 °FPartly cloudy.20 mph76%29.90 "Hg15 mi
9:00 PM43 °FPassing clouds.16 mph76%29.90 "Hg15 mi
8:00 PM45 °FLight rain. Passing clouds.15 mph76%29.90 "Hg14 mi
7:00 PM45 °FMostly cloudy.15 mph76%29.91 "Hg15 mi
Weather by CustomWeather, © 2016

See weather overviewHow to use our weather pages